Total_Precipitation_Accumulation
0.03 0.01 0.00 0.00 0.00 0.00 0.00 0.00 0.00 0.00 0.00 0.01 0.01 0.00 0.00 0.00 0.00 0.00 0.00 0.00 0.00 0.00 0.00 0.00 0.00 0.00 0.01 0.02 0.03 0.07 0.14 0.12 0.05 0.01 0.00 0.00 0.05 0.12 0.26 0.48 0.31 0.22 0.20 0.33
0.01 0.01 0.00 0.00 0.01 0.01 0.00 0.00 0.00 0.00 0.00 0.00 0.01 0.01 0.01 0.00 0.00 0.00 0.01 0.00 0.00 0.00 0.00 0.01 0.00 0.00 0.00 0.01 0.03 0.08 0.07 0.19 0.16 0.07 0.08 0.06 0.08 0.15 0.26 0.40 0.42 0.31 0.40 0.34
0.02 0.00 0.00 0.00 0.01 0.01 0.00 0.00 0.00 0.00 0.00 0.01 0.01 0.02 0.01 0.00 0.02 0.05 0.07 0.03 0.05 0.04 0.01 0.03 0.02 0.02 0.03 0.05 0.05 0.10 0.12 0.07 0.10 0.10 0.14 0.19 0.14 0.10 0.18 0.59 0.71 0.47 0.30 0.22
0.00 0.00 0.00 0.00 0.00 0.01 0.00 0.01 0.00 0.00 0.00 0.02 0.01 0.01 0.01 0.02 0.07 0.09 0.06 0.19 0.24 0.18 0.10 0.06 0.06 0.07 0.07 0.05 0.08 0.18 0.26 0.12 0.05 0.03 0.02 0.07 0.12 0.10 0.10 0.19 0.29 0.41 0.16 0.21
0.01 0.00 0.00 0.00 0.03 0.02 0.01 0.02 0.00 0.00 0.00 0.00 0.00 0.00 0.00 0.02 0.02 0.00 0.09 0.21 0.07 0.03 0.08 0.07 0.10 0.11 0.13 0.15 0.18 0.32 0.48 0.26 0.12 0.07 0.03 0.02 0.02 0.03 0.09 0.10 0.11 0.14 0.07 0.24
0.02 0.00 0.01 0.01 0.02 0.01 0.00 0.01 0.04 0.02 0.01 0.00 0.00 0.00 0.00 0.01 0.00 0.00 0.01 0.01 0.00 0.01 0.06 0.04 0.03 0.04 0.06 0.07 0.13 0.25 0.38 0.49 0.34 0.16 0.06 0.06 0.03 0.04 0.03 0.02 0.09 0.12 0.20 0.29
0.01 0.01 0.03 0.04 0.04 0.01 0.00 0.00 0.03 0.05 0.02 0.00 0.00 0.00 0.00 0.00 0.00 0.00 0.00 0.00 0.02 0.02 0.01 0.00 0.01 0.02 0.03 0.03 0.03 0.13 0.30 0.31 0.37 0.25 0.12 0.16 0.06 0.16 0.22 0.14 0.29 0.40 0.42 0.26
0.01 0.01 0.01 0.01 0.04 0.04 0.00 0.00 0.01 0.01 0.01 0.00 0.00 0.00 0.00 0.00 0.00 0.00 0.00 0.00 0.00 0.00 0.04 0.06 0.03 0.07 0.10 0.05 0.02 0.04 0.10 0.26 0.36 0.36 0.33 0.15 0.11 0.26 0.47 0.39 0.40 0.30 0.22 0.10
0.04 0.01 0.01 0.01 0.04 0.07 0.01 0.00 0.00 0.02 0.05 0.01 0.00 0.00 0.00 0.00 0.00 0.00 0.00 0.00 0.00 0.07 0.27 0.36 0.21 0.11 0.10 0.10 0.11 0.04 0.05 0.14 0.37 0.27 0.50 0.43 0.67 0.25 0.20 0.49 0.41 0.19 0.10 0.04
0.06 0.02 0.03 0.03 0.06 0.08 0.02 0.01 0.00 0.02 0.04 0.00 0.00 0.00 0.00 0.00 0.01 0.01 0.03 0.01 0.01 0.19 0.40 0.62 0.75 0.36 0.09 0.19 0.38 0.15 0.05 0.09 0.14 0.17 0.35 0.50 0.44 0.25 0.30 0.43 0.38 0.08 0.01 0.01
0.05 0.02 0.01 0.01 0.05 0.07 0.03 0.04 0.00 0.01 0.01 0.01 0.00 0.00 0.00 0.00 0.01 0.02 0.03 0.04 0.07 0.07 0.24 0.31 0.46 0.57 0.26 0.52 0.85 0.29 0.31 0.22 0.19 0.31 0.57 0.55 0.08 0.19 0.34 0.38 0.18 0.03 0.01 0.01
0.05 0.04 0.02 0.01 0.02 0.06 0.08 0.08 0.00 0.01 0.01 0.01 0.00 0.00 0.00 0.00 0.00 0.00 0.00 0.02 0.08 0.14 0.23 0.16 0.16 0.25 0.31 0.46 0.61 0.53 0.84 0.77 0.90 0.60 0.57 0.34 0.15 0.17 0.23 0.17 0.09 0.07 0.10 0.17
0.04 0.03 0.01 0.03 0.05 0.06 0.08 0.11 0.02 0.07 0.13 0.03 0.00 0.00 0.00 0.00 0.00 0.00 0.00 0.04 0.06 0.12 0.20 0.29 0.17 0.18 0.16 0.25 0.58 0.47 0.29 0.27 0.57 0.56 0.42 0.17 0.19 0.12 0.09 0.08 0.07 0.06 0.07 0.39
0.04 0.03 0.00 0.01 0.04 0.13 0.17 0.18 0.08 0.05 0.09 0.02 0.01 0.00 0.00 0.00 0.00 0.00 0.00 0.02 0.01 0.03 0.07 0.17 0.18 0.10 0.13 0.12 0.36 0.19 0.10 0.13 0.23 0.44 0.48 0.35 0.20 0.20 0.15 0.15 0.14 0.16 0.19 0.16
0.05 0.03 0.03 0.05 0.07 0.15 0.40 0.59 0.30 0.07 0.09 0.10 0.02 0.00 0.00 0.00 0.00 0.00 0.00 0.00 0.00 0.01 0.04 0.09 0.06 0.05 0.16 0.14 0.36 0.22 0.20 0.16 0.12 0.30 0.28 0.35 0.39 0.32 0.22 0.21 0.26 0.29 0.15 0.11
0.07 0.04 0.04 0.10 0.22 0.60 1.26 1.14 0.61 0.29 0.26 0.37 0.11 0.01 0.00 0.00 0.00 0.00 0.00 0.00 0.01 0.01 0.04 0.05 0.04 0.06 0.14 0.19 0.45 0.26 0.23 0.19 0.20 0.29 0.36 0.31 0.31 0.29 0.22 0.16 0.14 0.16 0.14 0.12
0.11 0.06 0.05 0.07 0.15 0.52 0.91 0.56 0.16 0.17 0.34 0.64 0.26 0.03 0.01 0.00 0.00 0.02 0.05 0.01 0.01 0.01 0.03 0.02 0.02 0.02 0.12 0.26 0.45 0.32 0.26 0.31 0.33 0.35 0.33 0.28 0.24 0.18 0.11 0.03 0.01 0.01 0.01 0.02
0.17 0.23 0.22 0.15 0.30 0.47 0.43 0.18 0.15 0.27 0.58 0.41 0.16 0.03 0.02 0.01 0.05 0.09 0.08 0.03 0.02 0.04 0.04 0.04 0.04 0.04 0.13 0.24 0.31 0.29 0.23 0.32 0.28 0.26 0.17 0.11 0.05 0.02 0.01 0.00 0.00 0.00 0.00 0.00
0.33 0.36 0.30 0.26 0.23 0.17 0.10 0.15 0.18 0.20 0.29 0.17 0.05 0.03 0.13 0.05 0.13 0.19 0.16 0.10 0.06 0.04 0.07 0.03 0.05 0.06 0.08 0.11 0.15 0.17 0.18 0.26 0.28 0.18 0.06 0.01 0.00 0.01 0.00 0.00 0.00 0.00 0.00 0.00
0.45 0.25 0.23 0.25 0.15 0.09 0.08 0.14 0.11 0.13 0.12 0.07 0.04 0.02 0.14 0.08 0.12 0.16 0.17 0.14 0.06 0.09 0.06 0.05 0.08 0.05 0.06 0.03 0.02 0.04 0.05 0.09 0.13 0.13 0.07 0.03 0.02 0.00 0.00 0.00 0.00 0.00 0.00 0.00
0.24 0.24 0.30 0.21 0.13 0.08 0.11 0.08 0.07 0.05 0.06 0.02 0.00 0.01 0.07 0.08 0.15 0.30 0.13 0.16 0.18 0.12 0.13 0.09 0.11 0.08 0.05 0.03 0.01 0.01 0.02 0.07 0.09 0.07 0.06 0.04 0.01 0.00 0.00 0.01 0.01 0.00 0.01 0.01
0.12 0.14 0.29 0.26 0.13 0.11 0.09 0.07 0.04 0.04 0.01 0.01 0.01 0.01 0.03 0.09 0.12 0.44 0.31 0.20 0.23 0.29 0.23 0.11 0.10 0.08 0.05 0.02 0.02 0.00 0.00 0.01 0.02 0.03 0.02 0.01 0.00 0.00 0.00 0.01 0.01 0.02 0.02 0.01
0.22 0.22 0.12 0.14 0.10 0.12 0.04 0.03 0.01 0.01 0.01 0.03 0.07 0.11 0.03 0.09 0.21 0.41 0.32 0.26 0.18 0.23 0.32 0.16 0.06 0.04 0.03 0.01 0.00 0.00 0.00 0.00 0.00 0.01 0.01 0.01 0.01 0.01 0.00 0.01 0.02 0.01 0.01 0.01
0.20 0.13 0.07 0.10 0.06 0.01 0.01 0.03 0.04 0.04 0.05 0.06 0.24 0.09 0.10 0.09 0.11 0.15 0.21 0.22 0.19 0.25 0.17 0.09 0.03 0.02 0.02 0.01 0.00 0.00 0.01 0.01 0.01 0.01 0.01 0.01 0.01 0.01 0.01 0.01 0.01 0.01 0.01 0.00
0.24 0.11 0.06 0.02 0.02 0.01 0.02 0.01 0.00 0.00 0.03 0.12 0.24 0.09 0.11 0.07 0.10 0.09 0.13 0.17 0.28 0.31 0.35 0.04 0.04 0.02 0.01 0.00 0.00 0.01 0.01 0.01 0.01 0.02 0.01 0.01 0.01 0.02 0.02 0.02 0.01 0.00 0.00 0.00
0.19 0.12 0.05 0.03 0.01 0.01 0.02 0.03 0.02 0.03 0.09 0.10 0.11 0.13 0.08 0.09 0.03 0.07 0.07 0.16 0.41 0.08 0.02 0.03 0.02 0.01 0.01 0.00 0.01 0.01 0.02 0.01 0.02 0.01 0.01 0.02 0.02 0.01 0.01 0.00 0.00 0.00 0.00 0.00
0.06 0.02 0.02 0.02 0.02 0.02 0.02 0.03 0.03 0.03 0.09 0.07 0.06 0.13 0.10 0.13 0.02 0.01 0.01 0.01 0.02 0.02 0.03 0.02 0.01 0.01 0.01 0.01 0.01 0.01 0.02 0.02 0.02 0.02 0.02 0.01 0.00 0.00 0.00 0.00 0.00 0.00 0.00 0.00